GW4886 Weather Reports


time (UTC)temp
C
wind
direction
speed
KPH
gust
KPH
rain 1hr
cm
rain 24hr
cm
rain mn
cm
humidity
%
barometer
mb
20260508082908 0 285 0.0 1.6 0.00 0.00 0.00 96 1016.3
20260508082406 0 300 1.6 3.2 0.00 0.00 0.00 96 1016.5
20260508081903 0 331 0.0 1.6 0.00 0.00 0.00 96 1016.2
20260508081400 0 354 0.0 0.0 0.00 0.00 0.00 95 1016.1
20260508080856 0 304 0.0 0.0 0.00 0.00 0.00 96 1016.1
20260508080355 0 304 0.0 0.0 0.00 0.00 0.00 95 1016.1
20260508075851 0 303 0.0 0.0 0.00 0.00 0.00 95 1016.2
20260508075348 0 304 0.0 0.0 0.00 0.00 0.00 94 1016.5
20260508074846 0 306 0.0 1.6 0.00 0.00 0.00 95 1016.1
20260508074343 0 309 1.6 1.6 0.00 0.00 0.00 95 1016.3
20260508073840 0 337 0.0 0.0 0.00 0.00 0.00 94 1016.1
20260508073338 0 337 0.0 1.6 0.00 0.00 0.00 94 1016.2
20260508072834 0 303 0.0 0.0 0.00 0.00 0.00 94 1016.0
20260508072330 0 304 0.0 0.0 0.00 0.00 0.00 94 1016.1
20260508071828 1 304 0.0 0.0 0.00 0.00 0.00 93 1016.1
20260508071326 1 297 0.0 0.0 0.00 0.00 0.00 94 1016.0
20260508070823 1 325 0.0 0.0 0.00 0.00 0.00 93 1016.0
20260508070322 1 326 0.0 1.6 0.00 0.00 0.00 93 1016.0
20260508065819 1 307 0.0 0.0 0.00 0.00 0.00 93 1016.2
20260508065317 1 307 1.6 1.6 0.00 0.00 0.00 92 1016.3
20260508064814 1 329 0.0 0.0 0.00 0.00 0.00 91 1016.2
20260508064312 1 246 0.0 1.6 0.00 0.00 0.00 92 1016.2
20260508063809 1 340 0.0 0.0 0.00 0.00 0.00 91 1016.2
20260508063307 1 340 0.0 0.0 0.00 0.00 0.00 91 1016.6
20260508062804 1 341 0.0 0.0 0.00 0.00 0.00 90 1016.2
20260508062305 1 333 0.0 0.0 0.00 0.00 0.00 89 1016.1
20260508061758 2 281 0.0 0.0 0.00 0.00 0.00 88 1016.1
20260508061255 2 247 1.6 3.2 0.00 0.00 0.00 87 1016.1
20260508060752 2 314 0.0 1.6 0.00 0.00 0.00 86 1016.0
20260508060250 2 253 0.0 3.2 0.00 0.00 0.00 84 1016.0
20260508055745 2 344 0.0 1.6 0.00 0.00 0.00 87 1015.9
20260508055242 2 336 0.0 1.6 0.00 0.00 0.00 86 1016.0
20260508054739 3 269 1.6 1.6 0.00 0.00 0.00 84 1015.9
20260508054237 2 290 1.6 1.6 0.00 0.00 0.00 82 1016.0
20260508053734 3 256 0.0 1.6 0.00 0.00 0.00 81 1015.9
20260508053231 3 240 1.6 4.8 0.00 0.00 0.00 77 1016.0
20260508052728 3 272 0.0 1.6 0.00 0.00 0.00 82 1015.8
20260508052225 3 295 0.0 3.2 0.00 0.00 0.00 82 1015.8
20260508051721 3 268 0.0 3.2 0.00 0.00 0.00 79 1016.0
20260508051217 2 288 1.6 3.2 0.00 0.00 0.00 85 1015.9
20260508050714 2 320 0.0 1.6 0.00 0.00 0.00 86 1015.9
20260508050212 2 306 1.6 3.2 0.00 0.00 0.00 85 1016.1
20260508045711 3 343 1.6 1.6 0.00 0.00 0.00 83 1015.9
20260508045210 3 302 0.0 1.6 0.00 0.00 0.00 83 1015.8
20260508044707 3 3 0.0 1.6 0.00 0.00 0.00 82 1015.9
20260508044203 4 281 0.0 0.0 0.00 0.00 0.00 78 1015.8
20260508043659 5 239 0.0 4.8 0.00 0.00 0.00 75 1015.9
20260508043157 5 248 1.6 3.2 0.00 0.00 0.00 73 1015.9
20260508042654 5 256 6.4 6.4 0.00 0.00 0.00 66 1015.9
20260508042151 5 257 4.8 4.8 0.00 0.00 0.00 70 1015.8
20260508041647 4 259 3.2 4.8 0.00 0.00 0.00 73 1015.6
20260508041144 4 292 0.0 1.6 0.00 0.00 0.00 77 1015.8
20260508040641 4 320 0.0 1.6 0.00 0.00 0.00 80 1015.7
20260508040138 5 257 0.0 1.6 0.00 0.00 0.00 78 1015.5
20260508035636 4 255 1.6 3.2 0.00 0.00 0.00 71 1015.7
20260508035133 5 254 0.0 1.6 0.00 0.00 0.00 76 1015.7
20260508034630 6 206 1.6 1.6 0.00 0.00 0.00 70 1015.4
20260508034126 5 313 0.0 1.6 0.00 0.00 0.00 73 1015.5
20260508033624 6 253 0.0 0.0 0.00 0.00 0.00 68 1015.4
20260508033122 6 248 0.0 1.6 0.00 0.00 0.00 71 1015.3
20260508032618 6 272 0.0 0.0 0.00 0.00 0.00 69 1015.4
20260508032116 6 262 0.0 3.2 0.00 0.00 0.00 64 1015.3
20260508031613 6 295 4.8 4.8 0.00 0.00 0.00 71 1015.3
20260508031109 6 338 0.0 3.2 0.00 0.00 0.00 72 1015.3
20260508030605 6 270 3.2 4.8 0.00 0.00 0.00 65 1015.2
20260508030103 6 264 4.8 4.8 0.00 0.00 0.00 72 1015.2
20260508025559 7 259 4.8 6.4 0.00 0.00 0.00 66 1015.1
20260508025056 6 247 1.6 4.8 0.00 0.00 0.00 68 1014.9
20260508024552 6 269 3.2 4.8 0.00 0.00 0.00 74 1014.7
20260508024049 6 245 4.8 4.8 0.00 0.00 0.00 71 1015.0
20260508023546 6 262 3.2 4.8 0.00 0.00 0.00 76 1014.7
20260508023043 7 278 1.6 4.8 0.00 0.00 0.00 70 1014.6
20260508022539 7 241 4.8 4.8 0.00 0.00 0.00 69 1014.7
20260508022037 6 248 6.4 6.4 0.00 0.00 0.00 74 1014.7
20260508021532 7 255 4.8 4.8 0.00 0.00 0.00 72 1014.5
20260508021028 7 283 4.8 4.8 0.00 0.00 0.00 64 1014.7
20260508020526 6 247 6.4 6.4 0.00 0.00 0.00 75 1014.4
20260508020024 6 256 4.8 6.4 0.00 0.00 0.00 75 1014.5
20260508015521 7 252 4.8 6.4 0.00 0.00 0.00 73 1014.3
20260508015017 7 244 1.6 4.8 0.00 0.00 0.00 73 1014.5
20260508014514 7 256 4.8 4.8 0.00 0.00 0.00 76 1014.3
20260508014010 7 250 4.8 4.8 0.00 0.00 0.00 70 1014.3
20260508013506 7 267 4.8 6.4 0.00 0.00 0.00 73 1014.2
20260508013004 7 265 4.8 6.4 0.00 0.00 0.00 71 1014.0
20260508012501 7 247 6.4 6.4 0.00 0.00 0.00 71 1014.0
20260508011958 8 240 3.2 4.8 0.00 0.00 0.00 69 1014.0
20260508011456 8 240 3.2 3.2 0.00 0.00 0.00 70 1014.0
20260508010953 8 246 3.2 4.8 0.00 0.00 0.00 69 1013.9
20260508010450 8 296 6.4 11.3 0.00 0.00 0.00 60 1014.0
20260508005947 8 249 4.8 6.4 0.00 0.00 0.00 68 1014.0
20260508005444 9 277 4.8 6.4 0.00 0.00 0.00 68 1013.8
20260508004941 8 248 4.8 4.8 0.00 0.00 0.00 65 1013.8
20260508004437 9 249 4.8 6.4 0.00 0.00 0.00 66 1013.8
20260508003933 8 268 4.8 4.8 0.00 0.00 0.00 64 1013.8
20260508003430 8 245 1.6 3.2 0.00 0.00 0.00 66 1013.7
20260508002928 8 258 1.6 3.2 0.00 0.00 0.00 72 1013.7
20260508002424 9 256 1.6 3.2 0.00 0.00 0.00 70 1013.5
20260508001920 9 235 4.8 4.8 0.00 0.00 0.00 64 1013.5
20260508001416 9 259 3.2 4.8 0.00 0.00 0.00 72 1013.5
20260508000913 10 184 3.2 3.2 0.00 0.00 0.00 69 1013.0
20260508000412 10 74 1.6 3.2 0.00 0.00 0.00 63 1013.2
20260507235906 10 281 1.6 1.6 0.00 0.00 0.00 63 1013.4
20260507235403 10 265 1.6 1.6 0.00 0.00 0.00 60 1013.4
20260507234900 11 293 1.6 1.6 0.00 0.00 0.00 58 1013.1
20260507234357 11 50 0.0 1.6 0.00 0.00 0.00 55 1013.1
20260507233853 12 281 6.4 9.7 0.00 0.00 0.00 61 1013.1
20260507233350 12 343 8.0 12.9 0.00 0.00 0.00 50 1013.0
20260507232849 11 42 0.0 3.2 0.00 0.00 0.00 51 1013.1
20260507232345 11 284 4.8 6.4 0.00 0.00 0.00 51 1012.9
20260507231843 12 253 0.0 3.2 0.00 0.00 0.00 51 1012.9
20260507231339 12 288 3.2 6.4 0.00 0.00 0.00 50 1012.9
20260507230835 13 145 4.8 4.8 0.00 0.00 0.00 50 1012.8
20260507230333 12 266 1.6 9.7 0.00 0.00 0.00 49 1012.6
20260507225832 12 244 3.2 3.2 0.00 0.00 0.00 49 1012.7
20260507225329 13 263 1.6 4.8 0.00 0.00 0.00 49 1012.8
20260507224825 13 329 6.4 16.1 0.00 0.00 0.00 51 1012.7
20260507224322 13 273 14.5 16.1 0.00 0.00 0.00 47 1012.8
20260507223818 14 322 3.2 6.4 0.00 0.00 0.00 49 1012.6
20260507223314 14 17 6.4 20.9 0.00 0.00 0.00 51 1012.5
20260507222812 15 22 8.0 11.3 0.00 0.00 0.00 47 1012.2
20260507222308 14 315 4.8 11.3 0.00 0.00 0.00 47 1012.4
20260507221805 14 343 8.0 11.3 0.00 0.00 0.00 47 1012.4
20260507221301 14 273 3.2 9.7 0.00 0.00 0.00 44 1012.4
20260507220757 13 27 12.9 17.7 0.00 0.00 0.00 48 1012.5
20260507220256 13 13 9.7 22.5 0.00 0.00 0.00 47 1012.4
20260507215752 13 49 9.7 14.5 0.00 0.00 0.00 48 1012.3
20260507215250 13 265 6.4 17.7 0.00 0.00 0.00 48 1012.1
20260507214746 13 256 3.2 16.1 0.00 0.00 0.00 49 1012.0
20260507214244 14 172 4.8 9.7 0.00 0.00 0.00 48 1012.0
20260507213738 14 271 1.6 14.5 0.00 0.00 0.00 51 1012.0
20260507213236 14 309 9.7 14.5 0.00 0.00 0.00 47 1011.9
20260507212732 15 292 4.8 6.4 0.00 0.00 0.00 48 1011.6
20260507212229 13 308 1.6 12.9 0.00 0.00 0.00 49 1011.9
20260507211726 13 349 8.0 11.3 0.00 0.00 0.00 51 1011.6
20260507211222 14 237 6.4 12.9 0.00 0.00 0.00 48 1012.0
20260507210719 13 285 8.0 22.5 0.00 0.00 0.00 52 1011.5
20260507210216 15 307 6.4 12.9 0.00 0.00 0.00 51 1011.5
20260507205712 15 288 6.4 14.5 0.00 0.00 0.00 50 1011.5
20260507205209 15 167 4.8 24.1 0.00 0.00 0.00 51 1011.4
20260507204705 14 284 8.0 24.1 0.00 0.00 0.00 51 1011.8
20260507204203 15 341 16.1 20.9 0.00 0.00 0.00 51 1011.6
20260507203701 15 280 1.6 1.6 0.00 0.00 0.00 55 1011.3
20260507203158 14 256 1.6 14.5 0.00 0.00 0.00 50 1011.5
20260507202654 14 300 11.3 27.4 0.00 0.00 0.00 49 1011.4
20260507202150 15 34 14.5 16.1 0.00 0.00 0.00 54 1011.4
20260507201645 15 254 6.4 9.7 0.00 0.00 0.00 51 1011.3
20260507201142 15 315 6.4 22.5 0.00 0.00 0.00 51 1011.3
20260507200638 15 170 3.2 4.8 0.00 0.00 0.00 50 1011.2
20260507200134 15 328 6.4 20.9 0.00 0.00 0.00 52 1011.5
20260507195631 15 354 4.8 20.9 0.00 0.00 0.00 48 1011.2
20260507195128 15 258 3.2 20.9 0.00 0.00 0.00 53 1011.6
20260507194625 15 19 8.0 25.7 0.00 0.00 0.00 50 1011.5
20260507194120 14 277 6.4 14.5 0.00 0.00 0.00 55 1011.6
20260507193618 14 213 6.4 16.1 0.00 0.00 0.00 53 1011.4
20260507193115 14 43 17.7 22.5 0.00 0.00 0.00 53 1011.4
20260507192611 14 176 6.4 29.0 0.00 0.00 0.00 50 1011.8
20260507192108 13 36 8.0 14.5 0.00 0.00 0.00 53 1011.9
20260507191603 13 294 6.4 22.5 0.00 0.00 0.00 55 1012.1
20260507191100 14 5 12.9 22.5 0.00 0.00 0.00 59 1012.1
20260507190558 15 227 4.8 6.4 0.00 0.00 0.00 53 1011.9
20260507190056 14 309 6.4 22.5 0.00 0.00 0.00 54 1011.8
20260507185555 14 324 6.4 16.1 0.00 0.00 0.00 53 1012.0
20260507185050 14 72 4.8 11.3 0.00 0.00 0.00 56 1012.0
20260507184549 15 341 12.9 17.7 0.00 0.00 0.00 61 1012.1
20260507184046 14 316 1.6 4.8 0.00 0.00 0.00 55 1012.1
20260507183542 14 55 3.2 16.1 0.00 0.00 0.00 56 1012.0
20260507183040 14 47 17.7 20.9 0.00 0.00 0.00 59 1011.9
20260507182536 15 352 6.4 12.9 0.00 0.00 0.00 60 1011.8
20260507182031 15 327 8.0 14.5 0.00 0.00 0.00 59 1011.9
20260507181529 16 74 1.6 3.2 0.00 0.00 0.00 64 1011.8
20260507181025 15 206 0.0 4.8 0.00 0.00 0.00 67 1011.9
20260507180521 13 10 6.4 12.9 0.00 0.00 0.00 60 1012.0
20260507180018 13 56 3.2 6.4 0.00 0.00 0.00 65 1012.0
20260507175514 15 110 3.2 4.8 0.00 0.00 0.00 60 1012.1
20260507175012 15 155 3.2 6.4 0.00 0.00 0.00 59 1012.1
20260507174509 14 46 3.2 6.4 0.00 0.00 0.00 65 1012.1
20260507174007 14 346 9.7 17.7 0.00 0.00 0.00 63 1012.1
20260507173503 14 252 1.6 1.6 0.00 0.00 0.00 65 1012.2
20260507173001 13 295 9.7 17.7 0.00 0.00 0.00 63 1012.3
20260507172457 13 333 6.4 16.1 0.00 0.00 0.00 61 1012.3
20260507171954 13 307 8.0 12.9 0.00 0.00 0.00 64 1012.3
20260507171449 13 294 8.0 16.1 0.00 0.00 0.00 62 1012.4
20260507170947 13 24 4.8 12.9 0.00 0.00 0.00 64 1012.3
20260507170443 13 26 6.4 9.7 0.00 0.00 0.00 64 1012.5
20260507165940 13 359 6.4 9.7 0.00 0.00 0.00 67 1012.6
20260507165436 13 35 3.2 16.1 0.00 0.00 0.00 61 1012.5
20260507164931 13 303 1.6 12.9 0.00 0.00 0.00 60 1012.4
20260507164429 13 279 8.0 12.9 0.00 0.00 0.00 63 1012.2
20260507163925 13 22 1.6 6.4 0.00 0.00 0.00 60 1012.6
20260507163423 14 132 1.6 4.8 0.00 0.00 0.00 60 1012.5
20260507162920 14 171 3.2 3.2 0.00 0.00 0.00 65 1012.6
20260507162415 13 151 3.2 4.8 0.00 0.00 0.00 59 1012.6
20260507161913 13 224 0.0 0.0 0.00 0.00 0.00 60 1013.0
20260507161409 12 214 0.0 3.2 0.00 0.00 0.00 60 1012.9
20260507160906 13 270 4.8 6.4 0.00 0.00 0.00 64 1013.0
20260507160401 13 60 3.2 4.8 0.00 0.00 0.00 64 1013.1
20260507155858 12 307 3.2 4.8 0.00 0.00 0.00 61 1013.1
20260507155354 12 41 3.2 4.8 0.00 0.00 0.00 63 1013.2
20260507154851 12 72 3.2 3.2 0.00 0.00 0.00 67 1013.1
20260507154348 12 66 1.6 4.8 0.00 0.00 0.00 66 1013.0
20260507153845 11 13 3.2 4.8 0.00 0.00 0.00 65 1013.2
20260507153341 11 10 0.0 3.2 0.00 0.00 0.00 65 1013.4
20260507152838 11 59 6.4 6.4 0.00 0.00 0.00 67 1013.2
20260507152334 11 5 1.6 9.7 0.00 0.00 0.00 67 1013.4
20260507151830 11 40 3.2 6.4 0.00 0.00 0.00 68 1013.2
20260507151327 12 80 4.8 4.8 0.00 0.00 0.00 73 1013.4
20260507150824 11 59 4.8 9.7 0.00 0.00 0.00 67 1013.6
20260507150320 11 83 3.2 9.7 0.00 0.00 0.00 70 1013.6
20260507145816 11 56 3.2 4.8 0.00 0.00 0.00 68 1013.7
20260507145313 11 325 3.2 4.8 0.00 0.00 0.00 67 1013.6
20260507144810 11 38 6.4 6.4 0.00 0.00 0.00 71 1013.7
20260507144307 12 74 4.8 6.4 0.00 0.00 0.00 69 1013.5
20260507143803 11 34 1.6 9.7 0.00 0.00 0.00 73 1013.5
20260507143301 11 82 0.0 6.4 0.00 0.00 0.00 69 1013.5
20260507142757 10 140 0.0 3.2 0.00 0.00 0.00 70 1013.7
20260507142254 10 32 1.6 3.2 0.00 0.00 0.00 69 1013.8
20260507141750 10 40 6.4 9.7 0.00 0.00 0.00 72 1013.7
20260507141247 10 26 6.4 9.7 0.00 0.00 0.00 74 1013.8
20260507140743 10 5 4.8 9.7 0.00 0.00 0.00 74 1014.0
20260507140241 10 28 8.0 9.7 0.00 0.00 0.00 73 1014.2
20260507135738 10 15 1.6 6.4 0.00 0.00 0.00 72 1014.0
20260507135235 10 10 3.2 6.4 0.00 0.00 0.00 73 1014.2
20260507134731 9 11 4.8 11.3 0.00 0.00 0.00 73 1014.4
20260507134228 9 26 9.7 11.3 0.00 0.00 0.00 75 1014.2
20260507133724 9 332 8.0 11.3 0.00 0.00 0.00 73 1014.3
20260507133221 9 18 3.2 11.3 0.00 0.00 0.00 74 1014.3
20260507132718 9 24 4.8 6.4 0.00 0.00 0.00 73 1014.2
20260507132215 9 28 3.2 9.7 0.00 0.00 0.00 75 1014.2
20260507131711 9 9 8.0 9.7 0.00 0.00 0.00 73 1014.3
20260507131209 9 6 3.2 4.8 0.00 0.00 0.00 75 1014.3
20260507130705 9 359 1.6 3.2 0.00 0.00 0.00 74 1014.6
20260507130203 9 323 4.8 9.7 0.00 0.00 0.00 74 1014.2
20260507125702 9 351 6.4 12.9 0.00 0.00 0.00 77 1014.2
20260507125159 9 330 8.0 11.3 0.00 0.00 0.00 77 1014.3
20260507124655 9 326 6.4 16.1 0.00 0.00 0.00 77 1014.3
20260507124153 9 322 6.4 6.4 0.00 0.00 0.00 81 1014.4
20260507123651 9 275 1.6 4.8 0.00 0.00 0.00 83 1014.3
20260507123148 9 314 3.2 3.2 0.00 0.00 0.00 83 1014.2
20260507122643 9 0 0.0 3.2 0.00 0.00 0.00 82 1014.2
20260507122139 8 35 3.2 9.7 0.00 0.00 0.00 84 1014.2
20260507121635 9 43 4.8 6.4 0.00 0.00 0.00 83 1014.1
20260507121131 9 63 4.8 12.9 0.00 0.00 0.00 84 1014.1
20260507120627 9 16 6.4 9.7 0.00 0.00 0.00 84 1014.1
20260507120124 9 350 8.0 12.9 0.00 0.00 0.00 83 1013.8
20260507115621 9 334 6.4 17.7 0.00 0.00 0.00 85 1013.9
20260507115116 9 334 9.7 14.5 0.00 0.00 0.00 83 1014.1
20260507114613 9 324 6.4 11.3 0.00 0.00 0.00 83 1013.8
20260507114110 9 323 3.2 6.4 0.00 0.00 0.00 85 1013.6
20260507113607 9 310 6.4 9.7 0.00 0.00 0.00 85 1013.6
20260507113104 9 342 3.2 9.7 0.00 0.00 0.00 85 1013.6
20260507112602 9 320 6.4 6.4 0.00 0.00 0.00 85 1013.6
20260507112058 9 359 3.2 9.7 0.00 0.00 0.00 85 1013.4
20260507111555 9 291 4.8 6.4 0.00 0.00 0.00 86 1013.5
20260507111052 9 298 1.6 9.7 0.00 0.00 0.00 86 1013.4
20260507110548 9 352 4.8 9.7 0.00 0.00 0.00 86 1013.5
20260507110045 10 309 6.4 9.7 0.00 0.00 0.00 86 1013.5
20260507105542 10 294 4.8 9.7 0.00 0.00 0.00 85 1013.1
20260507105038 10 346 3.2 6.4 0.00 0.00 0.00 88 1013.1
20260507104536 10 321 6.4 11.3 0.00 0.00 0.00 87 1013.1
20260507104032 10 334 6.4 6.4 0.00 0.00 0.00 88 1013.2
20260507103528 10 317 4.8 9.7 0.00 0.00 0.00 87 1013.1
20260507103025 10 5 4.8 6.4 0.00 0.00 0.00 89 1013.1
20260507102522 10 11 0.0 1.6 0.00 0.00 0.00 90 1012.8
20260507102017 10 332 3.2 4.8 0.00 0.00 0.00 88 1013.0
20260507101513 10 23 1.6 6.4 0.00 0.00 0.00 88 1012.7
20260507101010 10 25 1.6 3.2 0.00 0.00 0.00 91 1012.9
20260507100507 10 323 1.6 3.2 0.00 0.00 0.00 90 1012.8
20260507100005 10 248 0.0 3.2 0.00 0.00 0.00 91 1012.9
20260507095503 10 267 0.0 1.6 0.00 0.00 0.00 91 1012.9
20260507094959 10 267 0.0 1.6 0.00 0.00 0.00 91 1012.8
20260507094455 10 230 1.6 1.6 0.00 0.00 0.00 90 1012.9
20260507093953 10 278 3.2 4.8 0.00 0.00 0.00 90 1013.0
20260507093450 10 311 3.2 4.8 0.00 0.00 0.00 91 1012.9
20260507092948 10 274 1.6 3.2 0.00 0.00 0.00 91 1013.0
20260507092444 10 296 3.2 4.8 0.00 0.00 0.00 90 1012.8
20260507091941 10 264 4.8 6.4 0.00 0.00 0.00 90 1013.0
20260507091438 10 280 1.6 4.8 0.00 0.00 0.00 91 1012.9
20260507090934 10 267 0.0 1.6 0.00 0.00 0.00 90 1012.9
20260507090430 10 255 0.0 3.2 0.00 0.00 0.00 91 1013.2
20260507085927 10 295 3.2 3.2 0.00 0.00 0.00 90 1013.2
20260507085424 10 271 0.0 0.0 0.00 0.00 0.00 93 1012.9
20260507084921 10 205 1.6 3.2 0.00 0.00 0.00 90 1012.9
20260507084418 10 262 0.0 1.6 0.00 0.00 0.00 92 1012.7
20260507083915 10 272 0.0 0.0 0.00 0.00 0.00 95 1013.0
20260507083411 10 278 0.0 1.6 0.00 0.00 0.00 94 1013.1